| time (UTC) | temp F | wind direction | speed knots | gust knots | rain 1hr in | rain 24hr in | rain mn in | humidity % | barometer mb |
| 20260505194110 | 46 | 325 | 0.0 | 0.0 | 0.00 | 0.00 | 0.00 | 42 | 1009.2 |
| 20260505193607 | 47 | 335 | 0.9 | 0.9 | 0.00 | 0.00 | 0.00 | 41 | 1009.2 |
| 20260505193104 | 47 | 305 | 0.0 | 0.9 | 0.00 | 0.00 | 0.00 | 41 | 1009.3 |
| 20260505192603 | 47 | 321 | 0.9 | 0.9 | 0.00 | 0.00 | 0.00 | 40 | 1009.2 |
| 20260505192100 | 47 | 325 | 0.0 | 0.0 | 0.00 | 0.00 | 0.00 | 41 | 1009.2 |
| 20260505191558 | 47 | 323 | 0.0 | 0.9 | 0.00 | 0.00 | 0.00 | 41 | 1009.2 |
| 20260505191056 | 47 | 319 | 0.0 | 0.9 | 0.00 | 0.00 | 0.00 | 42 | 1009.3 |
| 20260505190550 | 46 | 320 | 0.0 | 0.9 | 0.00 | 0.00 | 0.00 | 43 | 1009.2 |
| 20260505190046 | 47 | 325 | 0.0 | 0.0 | 0.00 | 0.00 | 0.00 | 43 | 1009.1 |
| 20260505185543 | 48 | 335 | 0.0 | 0.0 | 0.00 | 0.00 | 0.00 | 41 | 1009.2 |
| 20260505185040 | 48 | 310 | 0.0 | 0.0 | 0.00 | 0.00 | 0.00 | 39 | 1009.0 |
| 20260505184537 | 48 | 322 | 0.9 | 0.9 | 0.00 | 0.00 | 0.00 | 39 | 1009.2 |
| 20260505184033 | 48 | 302 | 0.9 | 0.9 | 0.00 | 0.00 | 0.00 | 39 | 1009.0 |
| 20260505183530 | 49 | 322 | 0.0 | 0.0 | 0.00 | 0.00 | 0.00 | 38 | 1009.2 |
| 20260505183028 | 49 | 324 | 0.0 | 0.0 | 0.00 | 0.00 | 0.00 | 39 | 1009.1 |
| 20260505182524 | 49 | 332 | 0.9 | 0.9 | 0.00 | 0.00 | 0.00 | 38 | 1009.1 |
| 20260505182020 | 49 | 334 | 0.0 | 0.0 | 0.00 | 0.00 | 0.00 | 38 | 1009.0 |
| 20260505181517 | 50 | 323 | 0.9 | 0.9 | 0.00 | 0.00 | 0.00 | 37 | 1009.2 |
| 20260505181015 | 50 | 333 | 0.0 | 0.0 | 0.00 | 0.00 | 0.00 | 36 | 1009.0 |
| 20260505180510 | 50 | 341 | 1.7 | 1.7 | 0.00 | 0.00 | 0.00 | 35 | 1009.0 |
| 20260505180008 | 51 | 359 | 0.9 | 0.9 | 0.00 | 0.00 | 0.00 | 35 | 1008.8 |
| 20260505175502 | 51 | 19 | 2.6 | 4.3 | 0.00 | 0.00 | 0.00 | 34 | 1008.8 |
| 20260505174959 | 51 | 355 | 1.7 | 1.7 | 0.00 | 0.00 | 0.00 | 33 | 1008.7 |
| 20260505174451 | 52 | 31 | 1.7 | 1.7 | 0.00 | 0.00 | 0.00 | 32 | 1008.8 |
| 20260505173947 | 52 | 354 | 1.7 | 1.7 | 0.00 | 0.00 | 0.00 | 31 | 1008.7 |
| 20260505173444 | 52 | 313 | 1.7 | 2.6 | 0.00 | 0.00 | 0.00 | 30 | 1008.6 |
| 20260505172941 | 52 | 326 | 1.7 | 1.7 | 0.00 | 0.00 | 0.00 | 30 | 1008.5 |
| 20260505172439 | 53 | 343 | 0.9 | 1.7 | 0.00 | 0.00 | 0.00 | 29 | 1008.5 |
| 20260505171938 | 53 | 333 | 0.9 | 0.9 | 0.00 | 0.00 | 0.00 | 29 | 1008.4 |
| 20260505171436 | 53 | 323 | 1.7 | 1.7 | 0.00 | 0.00 | 0.00 | 28 | 1008.4 |
| 20260505170932 | 54 | 326 | 0.9 | 0.9 | 0.00 | 0.00 | 0.00 | 27 | 1008.3 |
| 20260505170429 | 54 | 356 | 2.6 | 2.6 | 0.00 | 0.00 | 0.00 | 26 | 1008.3 |
| 20260505165924 | 54 | 347 | 1.7 | 1.7 | 0.00 | 0.00 | 0.00 | 26 | 1008.4 |
| 20260505165420 | 54 | 335 | 0.9 | 1.7 | 0.00 | 0.00 | 0.00 | 25 | 1008.3 |
| 20260505164915 | 55 | 323 | 1.7 | 1.7 | 0.00 | 0.00 | 0.00 | 25 | 1008.4 |
| 20260505164407 | 55 | 341 | 1.7 | 2.6 | 0.00 | 0.00 | 0.00 | 24 | 1008.3 |
| 20260505163905 | 55 | 347 | 2.6 | 2.6 | 0.00 | 0.00 | 0.00 | 24 | 1008.1 |
| 20260505163404 | 56 | 20 | 1.7 | 2.6 | 0.00 | 0.00 | 0.00 | 23 | 1008.0 |
| 20260505162902 | 56 | 8 | 2.6 | 2.6 | 0.00 | 0.00 | 0.00 | 22 | 1008.1 |
| 20260505162357 | 57 | 347 | 1.7 | 1.7 | 0.00 | 0.00 | 0.00 | 22 | 1007.9 |
| 20260505161855 | 58 | 329 | 3.5 | 5.2 | 0.00 | 0.00 | 0.00 | 21 | 1008.0 |
| 20260505161351 | 59 | 340 | 1.7 | 1.7 | 0.00 | 0.00 | 0.00 | 22 | 1008.3 |
| 20260505160849 | 60 | 351 | 2.6 | 4.3 | 0.00 | 0.00 | 0.00 | 20 | 1007.7 |
| 20260505160347 | 60 | 10 | 0.9 | 1.7 | 0.00 | 0.00 | 0.00 | 21 | 1007.8 |
| 20260505153326 | 62 | 58 | 1.7 | 2.6 | 0.00 | 0.00 | 0.00 | 17 | 1007.7 |
| 20260505152823 | 62 | 71 | 2.6 | 4.3 | 0.00 | 0.00 | 0.00 | 16 | 1007.4 |
| 20260505152320 | 62 | 93 | 5.2 | 6.1 | 0.00 | 0.00 | 0.00 | 14 | 1007.7 |
| 20260505151820 | 63 | 42 | 6.1 | 8.7 | 0.00 | 0.00 | 0.00 | 13 | 1007.5 |
| 20260505151316 | 63 | 334 | 3.5 | 5.2 | 0.00 | 0.00 | 0.00 | 16 | 1007.4 |
| 20260505150813 | 63 | 135 | 3.5 | 6.1 | 0.00 | 0.00 | 0.00 | 16 | 1007.7 |
| 20260505150310 | 64 | 303 | 0.9 | 1.7 | 0.00 | 0.00 | 0.00 | 17 | 1007.5 |
| 20260505140235 | 64 | 6 | 6.1 | 8.7 | 0.00 | 0.00 | 0.00 | 14 | 1007.4 |
| 20260505130159 | 66 | 32 | 3.5 | 6.1 | 0.00 | 0.00 | 0.00 | 16 | 1007.5 |
| 20260505124649 | 64 | 63 | 4.3 | 7.0 | 0.00 | 0.00 | 0.00 | 15 | 1007.5 |
| 20260505124145 | 65 | 346 | 4.3 | 7.0 | 0.00 | 0.00 | 0.00 | 15 | 1007.8 |
| 20260505123641 | 64 | 318 | 3.5 | 5.2 | 0.00 | 0.00 | 0.00 | 15 | 1007.9 |
| 20260505123138 | 64 | 49 | 6.1 | 7.0 | 0.00 | 0.00 | 0.00 | 14 | 1008.0 |
| 20260505122635 | 65 | 293 | 4.3 | 7.8 | 0.00 | 0.00 | 0.00 | 13 | 1008.0 |
| 20260505122132 | 65 | 287 | 4.3 | 6.1 | 0.00 | 0.00 | 0.00 | 16 | 1008.0 |
| 20260505121629 | 65 | 318 | 1.7 | 1.7 | 0.00 | 0.00 | 0.00 | 17 | 1007.9 |
| 20260505121126 | 64 | 10 | 2.6 | 4.3 | 0.00 | 0.00 | 0.00 | 16 | 1008.3 |
| 20260505120621 | 64 | 345 | 4.3 | 5.2 | 0.00 | 0.00 | 0.00 | 15 | 1008.1 |
| 20260505120117 | 65 | 320 | 5.2 | 7.0 | 0.00 | 0.00 | 0.00 | 15 | 1008.3 |
| 20260505115612 | 64 | 322 | 2.6 | 2.6 | 0.00 | 0.00 | 0.00 | 16 | 1008.4 |
| 20260505115109 | 64 | 95 | 6.1 | 7.8 | 0.00 | 0.00 | 0.00 | 15 | 1008.3 |
| 20260505114601 | 64 | 359 | 5.2 | 7.8 | 0.00 | 0.00 | 0.00 | 16 | 1008.3 |
| 20260505114057 | 64 | 318 | 5.2 | 6.1 | 0.00 | 0.00 | 0.00 | 15 | 1008.5 |
| 20260505113553 | 64 | 329 | 1.7 | 2.6 | 0.00 | 0.00 | 0.00 | 17 | 1008.6 |
| 20260505113050 | 64 | 350 | 2.6 | 5.2 | 0.00 | 0.00 | 0.00 | 17 | 1008.7 |
| 20260505112546 | 64 | 20 | 2.6 | 2.6 | 0.00 | 0.00 | 0.00 | 19 | 1008.8 |
| 20260505112044 | 63 | 342 | 3.5 | 6.1 | 0.00 | 0.00 | 0.00 | 19 | 1008.7 |
| 20260505111538 | 63 | 307 | 7.0 | 8.7 | 0.00 | 0.00 | 0.00 | 20 | 1008.8 |
| 20260505111035 | 64 | 6 | 4.3 | 7.0 | 0.00 | 0.00 | 0.00 | 19 | 1008.8 |
| 20260505110531 | 64 | 358 | 3.5 | 5.2 | 0.00 | 0.00 | 0.00 | 20 | 1009.0 |
| 20260505102004 | 62 | 47 | 7.0 | 11.3 | 0.00 | 0.00 | 0.00 | 21 | 1009.3 |
| 20260505101501 | 62 | 303 | 4.3 | 6.1 | 0.00 | 0.00 | 0.00 | 20 | 1009.7 |
| 20260505100958 | 62 | 48 | 5.2 | 7.0 | 0.00 | 0.00 | 0.00 | 20 | 1009.5 |
| 20260505100455 | 63 | 314 | 6.1 | 8.7 | 0.00 | 0.00 | 0.00 | 21 | 1009.5 |
| 20260505095951 | 61 | 351 | 2.6 | 4.3 | 0.00 | 0.00 | 0.00 | 24 | 1009.5 |
| 20260505095448 | 60 | 21 | 2.6 | 5.2 | 0.00 | 0.00 | 0.00 | 22 | 1009.9 |
| 20260505094944 | 61 | 30 | 6.1 | 7.8 | 0.00 | 0.00 | 0.00 | 21 | 1009.8 |
| 20260505094441 | 60 | 342 | 3.5 | 5.2 | 0.00 | 0.00 | 0.00 | 22 | 1009.8 |
| 20260505093937 | 60 | 41 | 2.6 | 2.6 | 0.00 | 0.00 | 0.00 | 23 | 1009.9 |
| 20260505093434 | 60 | 359 | 3.5 | 5.2 | 0.00 | 0.00 | 0.00 | 22 | 1009.9 |
| 20260505092931 | 60 | 99 | 2.6 | 4.3 | 0.00 | 0.00 | 0.00 | 23 | 1010.1 |
| 20260505092429 | 60 | 24 | 4.3 | 7.0 | 0.00 | 0.00 | 0.00 | 24 | 1010.0 |
| 20260505091926 | 60 | 3 | 2.6 | 4.3 | 0.00 | 0.00 | 0.00 | 23 | 1010.0 |
| 20260505091423 | 60 | 6 | 4.3 | 6.1 | 0.00 | 0.00 | 0.00 | 23 | 1010.0 |
| 20260505090921 | 59 | 39 | 4.3 | 5.2 | 0.00 | 0.00 | 0.00 | 22 | 1010.1 |
| 20260505090419 | 59 | 28 | 3.5 | 5.2 | 0.00 | 0.00 | 0.00 | 25 | 1010.0 |
| 20260505085917 | 59 | 328 | 2.6 | 4.3 | 0.00 | 0.00 | 0.00 | 26 | 1010.1 |
| 20260505085414 | 59 | 9 | 4.3 | 6.1 | 0.00 | 0.00 | 0.00 | 26 | 1010.2 |
| 20260505084912 | 58 | 322 | 0.9 | 2.6 | 0.00 | 0.00 | 0.00 | 26 | 1010.2 |
| 20260505084410 | 58 | 342 | 1.7 | 2.6 | 0.00 | 0.00 | 0.00 | 27 | 1010.4 |
| 20260505083908 | 58 | 324 | 0.9 | 0.9 | 0.00 | 0.00 | 0.00 | 28 | 1010.4 |
| 20260505083405 | 57 | 353 | 2.6 | 2.6 | 0.00 | 0.00 | 0.00 | 29 | 1010.4 |
| 20260505082901 | 57 | 313 | 2.6 | 2.6 | 0.00 | 0.00 | 0.00 | 29 | 1010.4 |
| 20260505082357 | 56 | 341 | 3.5 | 5.2 | 0.00 | 0.00 | 0.00 | 28 | 1010.4 |
| 20260505081854 | 57 | 358 | 3.5 | 6.1 | 0.00 | 0.00 | 0.00 | 31 | 1010.1 |
| 20260505081351 | 57 | 359 | 3.5 | 4.3 | 0.00 | 0.00 | 0.00 | 32 | 1010.4 |
| 20260505080848 | 57 | 301 | 2.6 | 4.3 | 0.00 | 0.00 | 0.00 | 32 | 1010.2 |
| 20260505080344 | 57 | 357 | 2.6 | 4.3 | 0.00 | 0.00 | 0.00 | 32 | 1010.4 |
| 20260505075839 | 57 | 20 | 2.6 | 4.3 | 0.00 | 0.00 | 0.00 | 30 | 1010.0 |
| 20260505075337 | 57 | 75 | 4.3 | 6.1 | 0.00 | 0.00 | 0.00 | 28 | 1010.0 |
| 20260505074834 | 56 | 6 | 6.1 | 8.7 | 0.00 | 0.00 | 0.00 | 30 | 1010.1 |
| 20260505074331 | 56 | 59 | 3.5 | 6.1 | 0.00 | 0.00 | 0.00 | 29 | 1009.8 |
| 20260505073828 | 56 | 42 | 2.6 | 5.2 | 0.00 | 0.00 | 0.00 | 32 | 1009.9 |
| 20260505073326 | 56 | 3 | 2.6 | 2.6 | 0.00 | 0.00 | 0.00 | 33 | 1009.8 |
| 20260505072823 | 55 | 38 | 2.6 | 2.6 | 0.00 | 0.00 | 0.00 | 47 | 1009.7 |
| 20260505072319 | 54 | 7 | 2.6 | 4.3 | 0.00 | 0.00 | 0.00 | 51 | 1009.5 |
| 20260505071815 | 54 | 333 | 3.5 | 5.2 | 0.00 | 0.00 | 0.00 | 51 | 1009.3 |
| 20260505071312 | 54 | 36 | 1.7 | 1.7 | 0.00 | 0.00 | 0.00 | 51 | 1009.4 |
| 20260505070810 | 54 | 327 | 0.0 | 0.0 | 0.00 | 0.00 | 0.00 | 50 | 1009.2 |
| 20260505070306 | 54 | 335 | 0.9 | 1.7 | 0.00 | 0.00 | 0.00 | 47 | 1009.2 |
| 20260505065801 | 54 | 334 | 0.9 | 0.9 | 0.00 | 0.00 | 0.00 | 50 | 1009.2 |
| 20260505065258 | 53 | 325 | 0.9 | 1.7 | 0.00 | 0.00 | 0.00 | 56 | 1009.1 |
| 20260505064755 | 53 | 331 | 0.9 | 0.9 | 0.00 | 0.00 | 0.00 | 60 | 1009.2 |
| 20260505064252 | 52 | 326 | 0.0 | 0.0 | 0.00 | 0.00 | 0.00 | 61 | 1009.1 |
| 20260505063750 | 51 | 334 | 0.0 | 0.9 | 0.00 | 0.00 | 0.00 | 65 | 1009.2 |
| 20260505063246 | 51 | 314 | 0.0 | 0.9 | 0.00 | 0.00 | 0.00 | 67 | 1009.1 |
| 20260505062743 | 51 | 329 | 0.0 | 0.0 | 0.00 | 0.00 | 0.00 | 68 | 1008.8 |
| 20260505062240 | 50 | 323 | 0.0 | 0.0 | 0.00 | 0.00 | 0.00 | 69 | 1008.8 |
| 20260505061737 | 50 | 286 | 0.9 | 0.9 | 0.00 | 0.00 | 0.00 | 68 | 1008.7 |
| 20260505061235 | 50 | 325 | 0.0 | 0.0 | 0.00 | 0.00 | 0.00 | 70 | 1008.7 |
| 20260505060732 | 49 | 326 | 0.0 | 0.0 | 0.00 | 0.00 | 0.00 | 70 | 1008.8 |
| 20260505060229 | 48 | 324 | 0.0 | 0.0 | 0.00 | 0.00 | 0.00 | 71 | 1009.0 |
| 20260505055724 | 48 | 330 | 0.0 | 0.0 | 0.00 | 0.00 | 0.00 | 71 | 1008.7 |
| 20260505055221 | 47 | 326 | 0.0 | 0.0 | 0.00 | 0.00 | 0.00 | 73 | 1008.8 |
| 20260505054718 | 47 | 330 | 0.0 | 0.0 | 0.00 | 0.00 | 0.00 | 74 | 1008.7 |
| 20260505054216 | 46 | 328 | 0.0 | 0.0 | 0.00 | 0.00 | 0.00 | 75 | 1008.7 |
| 20260505053714 | 46 | 329 | 0.0 | 0.0 | 0.00 | 0.00 | 0.00 | 75 | 1008.6 |
| 20260505053210 | 46 | 323 | 0.0 | 0.0 | 0.00 | 0.00 | 0.00 | 75 | 1008.6 |
| 20260505052708 | 46 | 328 | 0.0 | 0.0 | 0.00 | 0.00 | 0.00 | 76 | 1008.4 |
| 20260505052204 | 46 | 326 | 0.0 | 0.0 | 0.00 | 0.00 | 0.00 | 76 | 1008.4 |
| 20260505051701 | 46 | 324 | 0.0 | 0.0 | 0.00 | 0.00 | 0.00 | 75 | 1008.4 |
| 20260505051159 | 46 | 327 | 0.0 | 0.0 | 0.00 | 0.00 | 0.00 | 75 | 1008.3 |
| 20260505050657 | 46 | 331 | 0.0 | 0.0 | 0.00 | 0.00 | 0.00 | 74 | 1008.4 |
| 20260505050155 | 46 | 324 | 0.0 | 0.0 | 0.00 | 0.00 | 0.00 | 74 | 1008.4 |
| 20260505041625 | 49 | 331 | 0.0 | 0.9 | 0.00 | 0.00 | 0.00 | 67 | 1007.9 |
| 20260505041122 | 48 | 321 | 0.0 | 0.9 | 0.00 | 0.00 | 0.00 | 68 | 1007.9 |
| 20260505040619 | 48 | 325 | 0.0 | 0.0 | 0.00 | 0.00 | 0.00 | 69 | 1007.9 |
| 20260505040116 | 48 | 324 | 0.0 | 0.9 | 0.00 | 0.00 | 0.00 | 69 | 1007.7 |
| 20260505035613 | 48 | 327 | 0.0 | 0.0 | 0.00 | 0.00 | 0.00 | 67 | 1007.8 |
| 20260505035109 | 49 | 328 | 0.0 | 0.0 | 0.00 | 0.00 | 0.00 | 66 | 1007.7 |
| 20260505034606 | 49 | 326 | 0.0 | 0.0 | 0.00 | 0.00 | 0.00 | 66 | 1007.8 |
| 20260505034103 | 49 | 325 | 0.0 | 0.0 | 0.00 | 0.00 | 0.00 | 66 | 1007.8 |
| 20260505033559 | 49 | 328 | 0.0 | 0.9 | 0.00 | 0.00 | 0.00 | 66 | 1007.8 |
| 20260505033058 | 49 | 325 | 0.0 | 0.0 | 0.00 | 0.00 | 0.00 | 66 | 1007.7 |
| 20260505032555 | 49 | 327 | 0.0 | 0.0 | 0.00 | 0.00 | 0.00 | 66 | 1007.7 |
| 20260505032051 | 49 | 327 | 0.0 | 0.0 | 0.00 | 0.00 | 0.00 | 65 | 1007.7 |
| 20260505031549 | 50 | 329 | 0.0 | 0.0 | 0.00 | 0.00 | 0.00 | 64 | 1007.5 |
| 20260505031045 | 50 | 328 | 0.0 | 0.0 | 0.00 | 0.00 | 0.00 | 63 | 1007.7 |
| 20260505030542 | 50 | 328 | 0.0 | 0.0 | 0.00 | 0.00 | 0.00 | 62 | 1007.7 |
| 20260505030038 | 51 | 331 | 0.9 | 0.9 | 0.00 | 0.00 | 0.00 | 61 | 1007.8 |
| 20260505025534 | 51 | 325 | 0.9 | 0.9 | 0.00 | 0.00 | 0.00 | 60 | 1007.7 |
| 20260505025033 | 51 | 320 | 0.9 | 0.9 | 0.00 | 0.00 | 0.00 | 60 | 1007.9 |
| 20260505024530 | 51 | 305 | 0.9 | 0.9 | 0.00 | 0.00 | 0.00 | 60 | 1008.0 |
| 20260505024027 | 51 | 330 | 0.0 | 0.0 | 0.00 | 0.00 | 0.00 | 60 | 1007.9 |
| 20260505023524 | 51 | 316 | 0.0 | 0.0 | 0.00 | 0.00 | 0.00 | 59 | 1008.0 |
| 20260505023021 | 51 | 335 | 0.0 | 0.0 | 0.00 | 0.00 | 0.00 | 59 | 1007.9 |
| 20260505022519 | 51 | 330 | 0.0 | 0.0 | 0.00 | 0.00 | 0.00 | 58 | 1008.1 |
| 20260505022016 | 52 | 329 | 0.0 | 0.0 | 0.00 | 0.00 | 0.00 | 57 | 1008.1 |
| 20260505021512 | 52 | 327 | 0.0 | 0.0 | 0.00 | 0.00 | 0.00 | 56 | 1008.0 |
| 20260505021009 | 52 | 324 | 0.9 | 0.9 | 0.00 | 0.00 | 0.00 | 55 | 1008.0 |
| 20260505020503 | 52 | 297 | 0.9 | 0.9 | 0.00 | 0.00 | 0.00 | 56 | 1008.3 |
| 20260505020000 | 52 | 325 | 0.0 | 0.0 | 0.00 | 0.00 | 0.00 | 54 | 1008.5 |
| 20260505015458 | 53 | 334 | 0.0 | 0.0 | 0.00 | 0.00 | 0.00 | 54 | 1008.3 |
| 20260505014954 | 53 | 328 | 0.9 | 1.7 | 0.00 | 0.00 | 0.00 | 54 | 1008.4 |
| 20260505014451 | 52 | 329 | 0.0 | 0.0 | 0.00 | 0.00 | 0.00 | 53 | 1008.5 |
| 20260505013949 | 53 | 329 | 0.0 | 0.0 | 0.00 | 0.00 | 0.00 | 53 | 1008.6 |
| 20260505013446 | 53 | 328 | 0.0 | 0.0 | 0.00 | 0.00 | 0.00 | 52 | 1008.5 |
| 20260505012943 | 54 | 271 | 1.7 | 1.7 | 0.00 | 0.00 | 0.00 | 51 | 1008.7 |
| 20260505012441 | 54 | 313 | 0.9 | 1.7 | 0.00 | 0.00 | 0.00 | 50 | 1008.8 |
| 20260505011937 | 54 | 279 | 1.7 | 1.7 | 0.00 | 0.00 | 0.00 | 49 | 1008.7 |
| 20260505011433 | 54 | 350 | 2.6 | 2.6 | 0.00 | 0.00 | 0.00 | 48 | 1009.0 |
| 20260505010930 | 54 | 273 | 0.9 | 0.9 | 0.00 | 0.00 | 0.00 | 48 | 1009.0 |
| 20260505010426 | 54 | 334 | 1.7 | 1.7 | 0.00 | 0.00 | 0.00 | 47 | 1009.0 |
| 20260505005922 | 54 | 344 | 0.9 | 0.9 | 0.00 | 0.00 | 0.00 | 47 | 1008.8 |
| 20260505005419 | 54 | 290 | 0.9 | 1.7 | 0.00 | 0.00 | 0.00 | 46 | 1009.1 |
| 20260505004917 | 54 | 310 | 0.9 | 0.9 | 0.00 | 0.00 | 0.00 | 47 | 1009.0 |
| 20260505004413 | 54 | 328 | 0.0 | 0.9 | 0.00 | 0.00 | 0.00 | 45 | 1008.8 |
| 20260505003910 | 55 | 325 | 0.0 | 0.0 | 0.00 | 0.00 | 0.00 | 43 | 1009.0 |
| 20260505003407 | 55 | 323 | 0.0 | 0.0 | 0.00 | 0.00 | 0.00 | 42 | 1009.2 |
| 20260505002904 | 54 | 322 | 0.0 | 0.9 | 0.00 | 0.00 | 0.00 | 43 | 1009.0 |
| 20260505002400 | 54 | 329 | 0.9 | 0.9 | 0.00 | 0.00 | 0.00 | 41 | 1009.1 |
| 20260505001859 | 53 | 327 | 0.9 | 0.9 | 0.00 | 0.00 | 0.00 | 43 | 1009.2 |
| 20260505001355 | 53 | 325 | 0.0 | 0.0 | 0.00 | 0.00 | 0.00 | 42 | 1009.2 |
| 20260505000853 | 53 | 325 | 0.0 | 0.9 | 0.00 | 0.00 | 0.00 | 44 | 1009.2 |
| 20260505000351 | 54 | 323 | 0.0 | 0.0 | 0.00 | 0.00 | 0.00 | 46 | 1009.2 |
| 20260504235846 | 55 | 270 | 0.0 | 0.9 | 0.00 | 0.00 | 0.00 | 38 | 1009.0 |
| 20260504235344 | 55 | 328 | 0.0 | 0.0 | 0.00 | 0.00 | 0.00 | 39 | 1009.1 |
| 20260504234840 | 55 | 329 | 0.0 | 0.0 | 0.00 | 0.00 | 0.00 | 39 | 1009.1 |
| 20260504234338 | 55 | 326 | 0.0 | 0.0 | 0.00 | 0.00 | 0.00 | 41 | 1009.2 |
| 20260504233835 | 54 | 325 | 0.0 | 0.0 | 0.00 | 0.00 | 0.00 | 40 | 1009.2 |
| 20260504233330 | 55 | 346 | 0.9 | 0.9 | 0.00 | 0.00 | 0.00 | 39 | 1009.1 |
| 20260504232827 | 55 | 326 | 0.0 | 0.0 | 0.00 | 0.00 | 0.00 | 40 | 1009.1 |
| 20260504232324 | 56 | 332 | 0.9 | 0.9 | 0.00 | 0.00 | 0.00 | 42 | 1009.0 |
| 20260504231821 | 56 | 306 | 0.9 | 0.9 | 0.00 | 0.00 | 0.00 | 37 | 1009.1 |
| 20260504231318 | 57 | 328 | 0.0 | 0.0 | 0.00 | 0.00 | 0.00 | 40 | 1009.2 |
| 20260504230814 | 57 | 321 | 0.0 | 0.0 | 0.00 | 0.00 | 0.00 | 34 | 1009.2 |
| 20260504230312 | 57 | 331 | 0.0 | 0.0 | 0.00 | 0.00 | 0.00 | 34 | 1009.2 |
| 20260504225810 | 57 | 321 | 0.9 | 0.9 | 0.00 | 0.00 | 0.00 | 36 | 1009.2 |
| 20260504225306 | 58 | 326 | 0.0 | 0.0 | 0.00 | 0.00 | 0.00 | 33 | 1009.2 |
| 20260504224804 | 58 | 324 | 0.9 | 0.9 | 0.00 | 0.00 | 0.00 | 32 | 1009.3 |
| 20260504224301 | 59 | 332 | 0.9 | 1.7 | 0.00 | 0.00 | 0.00 | 32 | 1009.2 |
| 20260504223757 | 59 | 327 | 0.9 | 1.7 | 0.00 | 0.00 | 0.00 | 32 | 1009.2 |
| 20260504223253 | 59 | 313 | 0.0 | 0.9 | 0.00 | 0.00 | 0.00 | 32 | 1009.1 |
| 20260504222750 | 59 | 324 | 0.9 | 0.9 | 0.00 | 0.00 | 0.00 | 31 | 1009.3 |
| 20260504222246 | 59 | 322 | 0.0 | 0.9 | 0.00 | 0.00 | 0.00 | 31 | 1009.3 |
| 20260504221744 | 59 | 359 | 0.9 | 0.9 | 0.00 | 0.00 | 0.00 | 31 | 1009.3 |
| 20260504221241 | 59 | 305 | 0.9 | 0.9 | 0.00 | 0.00 | 0.00 | 31 | 1009.4 |
| 20260504220738 | 59 | 326 | 0.0 | 0.9 | 0.00 | 0.00 | 0.00 | 32 | 1009.4 |
| 20260504220235 | 59 | 333 | 0.0 | 0.0 | 0.00 | 0.00 | 0.00 | 30 | 1009.5 |
| 20260504215732 | 59 | 321 | 0.9 | 0.9 | 0.00 | 0.00 | 0.00 | 31 | 1009.3 |
| 20260504215229 | 60 | 325 | 0.0 | 0.9 | 0.00 | 0.00 | 0.00 | 28 | 1009.5 |
| 20260504214724 | 59 | 325 | 0.0 | 0.0 | 0.00 | 0.00 | 0.00 | 29 | 1009.8 |
| 20260504214216 | 59 | 328 | 0.0 | 0.9 | 0.00 | 0.00 | 0.00 | 29 | 1009.5 |
| 20260504213712 | 60 | 328 | 0.0 | 0.0 | 0.00 | 0.00 | 0.00 | 32 | 1009.8 |
| 20260504213209 | 61 | 312 | 0.9 | 1.7 | 0.00 | 0.00 | 0.00 | 25 | 1009.7 |
| 20260504212706 | 61 | 323 | 0.0 | 0.9 | 0.00 | 0.00 | 0.00 | 26 | 1009.7 |
| 20260504212203 | 60 | 323 | 0.0 | 0.9 | 0.00 | 0.00 | 0.00 | 28 | 1009.9 |
| 20260504211700 | 61 | 311 | 0.9 | 0.9 | 0.00 | 0.00 | 0.00 | 26 | 1009.8 |
| 20260504211156 | 61 | 332 | 0.0 | 0.9 | 0.00 | 0.00 | 0.00 | 25 | 1009.7 |
| 20260504210654 | 61 | 323 | 0.0 | 0.0 | 0.00 | 0.00 | 0.00 | 27 | 1009.9 |
| 20260504210150 | 62 | 313 | 0.0 | 0.9 | 0.00 | 0.00 | 0.00 | 25 | 1009.8 |
| 20260504205648 | 62 | 323 | 0.0 | 0.0 | 0.00 | 0.00 | 0.00 | 24 | 1009.9 |
| 20260504205144 | 62 | 324 | 0.0 | 0.9 | 0.00 | 0.00 | 0.00 | 25 | 1009.9 |
| 20260504204643 | 62 | 275 | 0.9 | 0.9 | 0.00 | 0.00 | 0.00 | 23 | 1010.1 |
| 20260504204142 | 62 | 320 | 0.9 | 1.7 | 0.00 | 0.00 | 0.00 | 24 | 1009.9 |
| 20260504203640 | 62 | 330 | 0.0 | 0.9 | 0.00 | 0.00 | 0.00 | 26 | 1010.0 |
| 20260504203137 | 62 | 338 | 0.0 | 0.0 | 0.00 | 0.00 | 0.00 | 24 | 1010.0 |
| 20260504202632 | 63 | 307 | 0.9 | 0.9 | 0.00 | 0.00 | 0.00 | 24 | 1010.2 |
| 20260504202129 | 63 | 295 | 1.7 | 1.7 | 0.00 | 0.00 | 0.00 | 23 | 1010.0 |
| 20260504201625 | 63 | 329 | 0.9 | 0.9 | 0.00 | 0.00 | 0.00 | 24 | 1010.1 |
| 20260504201124 | 63 | 312 | 0.9 | 0.9 | 0.00 | 0.00 | 0.00 | 24 | 1009.9 |
| 20260504200620 | 63 | 324 | 0.9 | 1.7 | 0.00 | 0.00 | 0.00 | 24 | 1010.1 |
| 20260504200117 | 63 | 325 | 0.9 | 1.7 | 0.00 | 0.00 | 0.00 | 24 | 1010.2 |
| 20260504195613 | 63 | 322 | 0.9 | 0.9 | 0.00 | 0.00 | 0.00 | 24 | 1010.2 |
| 20260504195109 | 63 | 281 | 1.7 | 1.7 | 0.00 | 0.00 | 0.00 | 24 | 1010.1 |
| 20260504194606 | 63 | 275 | 1.7 | 1.7 | 0.00 | 0.00 | 0.00 | 25 | 1010.1 |